Olathe New Century, KS

7:19 PM CST on November 23, 2017 (GMT -0600)
New Century Aircenter

Weather History for KIXD - October, 2012

Change the Weather History Date:

Friday, October 12, 2012

  Actual Average Record
Temperature  
Mean Temperature 56 °F -  
Max Temperature 61 °F 66 °F 82 °F (1999)
Min Temperature 50 °F 44 °F 36 °F (2006)
Degree Days  
Heating Degree Days 10    
Growing Degree Days 6 (Base 50)    
Moisture  
Dew Point 43 °F    
Average Humidity 68    
Maximum Humidity 97    
Minimum Humidity 46    
Precipitation  
Precipitation 0.08 in - - ()
Sea Level Pressure  
Sea Level Pressure 30.19 in    
Wind  
Wind Speed 12 mph (East)    
Max Wind Speed 16 mph    
Max Gust Speed 22 mph    
Visibility 9 miles    
Events Rain    
Averages and records for this station are not official NWS values.
T = Trace of Precipitation, MM = Missing Value Source: NWS Daily Summary

Daily Weather History Graph

Daily Weather History Graph

Search for Another Location

Airport or City:

Trip Planner

Search our weather history database for the weather conditions in past years. The results will help you decide how hot, cold, wet, or windy it might be!

Date:

Astronomy

Oct. 12, 2012 Rise Set
Actual Time 7:26 AM CDT 6:44 PM CDT
Civil Twilight 6:59 AM CDT 7:11 PM CDT
Nautical Twilight 6:28 AM CDT 7:42 PM CDT
Astronomical Twilight 5:57 AM CDT 8:13 PM CDT
Moon 4:11 AM CDT (10/12) 4:53 PM CDT (10/12)
Length of Visible Light 12h 11m
Length of Day
11h 18m
Waning Crescent, 10% of the Moon is Illuminated
Oct 12
Waning Crescent
Oct 15
New
Oct 21
First Quarter
Oct 29
Full
Nov 6
Last Quarter

Hourly Weather History & Observations

Time (CDT) Temp. Dew Point Humidity Pressure Visibility Wind Dir Wind Speed Gust Speed Precip Events Conditions
12:53 AM 61.0 °F 54.0 °F 78% 30.19 in 10.0 mi NNE 10.4 mph - N/A   Overcast
1:53 AM 57.0 °F 41.0 °F 55% 30.19 in 10.0 mi NE 11.5 mph 20.7 mph N/A   Overcast
3:53 AM 53.1 °F 35.1 °F 50% 30.21 in 10.0 mi NE 11.5 mph - N/A   Overcast
4:53 AM 52.0 °F 33.1 °F 49% 30.22 in 10.0 mi NE 11.5 mph - N/A   Overcast
5:53 AM 51.1 °F 30.9 °F 46% 30.25 in 10.0 mi NE 15.0 mph 19.6 mph N/A   Overcast
6:53 AM 50.0 °F 30.9 °F 48% 30.25 in 10.0 mi ENE 16.1 mph 21.9 mph N/A   Overcast
7:53 AM 50.0 °F 32.0 °F 50% 30.26 in 10.0 mi NE 11.5 mph 19.6 mph N/A   Overcast
8:53 AM 50.0 °F 33.1 °F 52% 30.27 in 10.0 mi ENE 12.7 mph 21.9 mph N/A   Overcast
9:53 AM 50.0 °F 35.1 °F 57% 30.29 in 10.0 mi East 10.4 mph 20.7 mph N/A   Overcast
10:33 AM 51.8 °F 35.6 °F 54% 30.30 in 10.0 mi ENE 12.7 mph - N/A   Overcast
11:53 AM 52.0 °F 37.9 °F 59% 30.30 in 10.0 mi East 9.2 mph - N/A   Overcast
12:53 PM 52.0 °F 39.0 °F 61% 30.26 in 10.0 mi East 11.5 mph 18.4 mph 0.00 in Rain Light Rain
1:53 PM 53.1 °F 39.9 °F 61% 30.24 in 10.0 mi East 9.2 mph - 0.00 in   Overcast
2:53 PM 55.0 °F 42.1 °F 62% 30.20 in 10.0 mi East 11.5 mph - N/A   Overcast
3:53 PM 57.0 °F 44.1 °F 62% 30.17 in 10.0 mi East 10.4 mph 17.3 mph N/A   Overcast
5:53 PM 57.0 °F 48.9 °F 74% 30.17 in 10.0 mi SE 9.2 mph - N/A   Overcast
6:53 PM 57.0 °F 48.9 °F 74% 30.14 in 10.0 mi SE 10.4 mph - N/A   Overcast
7:53 PM 57.0 °F 52.0 °F 83% 30.12 in 9.0 mi East 15.0 mph - N/A   Overcast
9:53 PM 55.0 °F 53.1 °F 93% 30.11 in 7.0 mi SE 16.1 mph - 0.07 in   Overcast
10:25 PM 55.4 °F 53.6 °F 94% 30.09 in 6.0 mi SSE 12.7 mph - 0.00 in Rain Light Rain
10:37 PM 55.4 °F 53.6 °F 94% 30.09 in 6.0 mi SSE 15.0 mph - 0.00 in   Scattered Clouds
10:53 PM 55.9 °F 55.0 °F 97% 30.07 in 5.0 mi SSE 13.8 mph - 0.00 in   Partly Cloudy
11:07 PM 57.2 °F 55.4 °F 94% 30.08 in 6.0 mi SSE 9.2 mph - N/A   Mostly Cloudy
11:53 PM 57.9 °F 55.9 °F 93% 30.10 in 6.0 mi West 4.6 mph - 0.01 in   Overcast